DELTA 1 DEB, 10748

Orbit data source: Space-Track

DELTA 1 DEB, 10748 is space debris in SSO originally from a launch on Thu, 29 Jul 1976 UTC launched from the Air Force Western Test Range (AFWTR). Debris objects in space refer to the collection of defunct objects orbiting the Earth. Examples of debris include non-operational satellites, rocket bodies, and fragments generated from explosions, collisions, or faulty payload assembly.

Loading next visibility...
Identifier
10748, 1976-077AV
Orbit
SSO
Country
Flag of USUS
Related business
Manufacturer
Unknown
Mission
Spacecraft
Bus & Motor
Unknown
Mass
Unknown
Launch date (UTC)
1976-07-29 (50 years ago)
Launch vehicle
Unknown
Launch site
Air Force Western Test Range (AFWTR)
Object type
Payload
Rocket body
Debris
Shape & HBR
Unknown shape, 0.2 m
Radar Cross Section
Small (<0.1 m²)

Expand to show TLE details & history
Last TLE update: 5 hours ago

TLE from 5 hours ago
0 DELTA 1 DEB
1 10748U 76077AV  26132.15663324  .00000001  00000-0  39291-3 0  9999
2 10748 102.4851 117.0791 0073723 152.7337 341.2477 12.29754998234282
Epoch: 2026-05-12T03:45Z
TLE epoch observation values (Epoch: 2026-05-12T03:45:33.111Z)
Latitude
44.9819°
Longitude
23.47676°
Altitude
1,501.534 km
Speed
7.143 km/s
True Right ascension
20h 39m 11s
True Declination
44° 49' 34"
Sunlit
Object was in daylight at epoch
Visualization orbit readout
Latitude
Unknown
Longitude
Unknown
Altitude
Unknown
Speed
Unknown
Apparent Right ascension
Unknown
Apparent Declination
Unknown
Sunlit
N/A
Visualization observer readout
Local Sidereal Time
17:03:38
Azimuth
Unknown
Elevation
Unknown
Doppler factor
Unknown
Orbital elements
Apogee altitude
1,606.385 km
Perigee altitude
1,489.518 km
Semi-major axis
7,926.088 km
Eccentricity
0.00737
Inclination
102.4851°
RAAN
117.0791°
Arg. of periapsis
152.7337°
True anomaly
340.97373°
Mean anomaly
341.2477°
Eccentric anomaly
341.11095°
Mean motion
3.07578 °/min
Orbital period
117.04 mins
BSTAR
0.00039291
Loading maneuver chart data...
Computing Atmospheric mass density...
Loading historical data...
Loading historical data...
Loading historical data...
Loading historical data...
Loading historical data...
Loading historical data...
Loading historical data...

Documentation

Showing up to 5 results
|